Flag for Germany Past Weather in Neustadt am Rübenberge, Lower Saxony, Germany — Yesterday and Last 2 Weeks

46 °F

Light rain. Fog.

Feels Like: 43 °F
Forecast: 43 / 47 °F
Wind: 7 mph from West

Location: Wunstorf Airport

Current Time: Oct 21, 2016 at 5:04:37 PM

Latest Report: Oct 21, 2016 at 4:20 PM

Visibility: 3 mi

Pressure: 29.89 "Hg

Humidity: 93%

Dew Point: 45 °F

Location of Neustadt am RübenbergeLocation

Past Weather in Neustadt am Rübenberge — Graph


Neustadt am Rübenberge Temperature Yesterday

Maximum temperature yesterday: 48 °F (at 4:20 PM)
Minimum temperature yesterday: 45 °F (at 12:20 AM)
Average temperature yesterday: 45 °F

High & Low Weather Summary for the Past Weeks

High63 °F (Oct 16, 2:20 PM)100% (Oct 9, 4:20 AM)30.27 "Hg (Oct 9, 4:20 AM)
Low36 °F (Oct 9, 4:20 AM)56% (Oct 16, 3:20 PM)29.74 "Hg (Oct 15, 6:20 AM)
Average48 °F87%30.09 "Hg
* Reported Oct 6 3:20 PM — Oct 21 3:20 PM, Neustadt am Rübenberge, Weather by CustomWeather, © 2016

Note: Actual official high and low records may vary slightly from our data, if they occured in-between our weather recording intervals... More about our weather records


Neustadt am Rübenberge Weather History for the Previous 24 Hours

Scroll right to see more
Time TempWeatherWind HumidityBarometerVisibility
3:20 PM
Fri, Oct 21
46 °FLight rain. Fog.7 mph93%29.89 "Hg2 mi
2:47 PM46 °FLight rain. Fog.8 mph93%29.89 "Hg2 mi
2:20 PM46 °FLight rain. Fog.8 mph93%29.89 "Hg2 mi
1:20 PM45 °FLight rain. Fog.9 mph93%29.92 "Hg2 mi
12:20 PM45 °FLight rain. Fog.9 mph93%29.92 "Hg2 mi
11:20 AM45 °FDrizzle. Fog.10 mph93%29.92 "Hg2 mi
10:20 AM45 °FFog.8 mph93%29.92 "Hg1 mi
9:58 AM45 °FFog.8 mph93%29.92 "Hg1 mi
9:20 AM43 °FFog.9 mph100%29.92 "Hg1 mi
8:20 AM43 °FFog.10 mph100%29.92 "Hg1 mi
7:20 AM43 °FFog.8 mph100%29.92 "Hg1 mi
6:58 AM43 °FFog.7 mph100%29.92 "Hg1 mi
6:20 AM43 °FFog.7 mph100%29.92 "Hg0 mi
5:20 AM43 °FFog.7 mph100%29.92 "Hg0 mi
4:20 AM43 °FQuite cool.1 mph93%29.95 "HgN/A
3:20 AM43 °FQuite cool.6 mph93%29.95 "HgN/A
2:20 AM43 °FQuite cool.3 mph93%29.95 "HgN/A
1:20 AM45 °FQuite cool.2 mph87%29.95 "HgN/A
12:20 AM45 °FQuite cool.5 mph87%29.95 "HgN/A
11:20 PM
Thu, Oct 20
45 °FQuite cool.7 mph93%29.95 "HgN/A
10:20 PM45 °FQuite cool.7 mph93%29.95 "HgN/A
9:20 PM45 °FQuite cool.8 mph93%29.95 "HgN/A
8:20 PM45 °FQuite cool.5 mph93%29.95 "HgN/A
7:20 PM46 °FPassing clouds.6 mph87%29.95 "HgN/A
6:20 PM46 °FPartly cloudy.5 mph87%29.92 "HgN/A
5:20 PM46 °FBroken clouds.5 mph87%29.92 "HgN/A
Weather by CustomWeather, © 2016

See weather overviewHow to use our weather pages